Flag for Switzerland Weather past 2 weeks in Cham, Zug, Switzerland

Now
49 °F

Cool.


Feels Like: 46 °F
Forecast: 27 / 61 °F
Wind: 9 mph from Northeast

Location: Zurich Town / Ville.


UV Index: 3 (Moderate)

Visibility: N/A


Pressure: 30.28 "Hg

Humidity: 38%

Dew point: 25 °F

Location of ChamLocation

Historic Weather in Cham

°F

Cham temperature yesterday

Maximum temperature yesterday: 51 °F (at 5:00 PM)
Minimum temperature yesterday: 39 °F (at 8:00 AM)
Average temperature yesterday: 45 °F

Past Weeks' High & Low Weather Summary

 TemperatureHumidityPressure
High69 °F (Apr 2, 6:00 PM)98% (Apr 6, 6:00 AM)30.34 "Hg (Apr 6, 6:00 AM)
Low35 °F (Apr 16, 7:00 AM)22% (Apr 2, 3:00 PM)29.63 "Hg (Apr 3, 4:00 PM)
Average53 °F61%30.02 "Hg
* Reported Apr 1 7:00 PM — Apr 16 6:00 PM, Cham, Weather by CustomWeather, © 2014

Note: Actual official high and low records may vary slightly from our data, if they occured in-between our weather recording intervals... More about our weather records

Advertising

Historic Weather Conditions — Data for Previous 24 hours

 ConditionsComfort  
Time TempWeatherWind HumidityBarometerVisibility
6:00 PM
Apr 16
51 °FCool.10 mph37%30.27 "HgN/A
4:00 PM53 °FCool.9 mph35%30.27 "HgN/A
3:00 PM51 °FCool.10 mph37%30.28 "HgN/A
2:00 PM49 °FSunny.10 mph40%30.29 "Hg16 mi
1:00 PM50 °FCool.10 mph41%30.29 "HgN/A
12:00 PM48 °FCool.12 mph43%30.30 "HgN/A
11:00 AM46 °FCool.8 mph48%30.31 "HgN/A
10:00 AM42 °FQuite cool.10 mph54%30.33 "HgN/A
9:00 AM40 °FChilly.10 mph62%30.33 "HgN/A
8:00 AM37 °FChilly.8 mph68%30.34 "HgN/A
7:00 AM35 °FChilly.7 mph69%30.34 "HgN/A
6:00 AM36 °FChilly.6 mph65%30.33 "HgN/A
5:00 AM37 °FChilly.6 mph60%30.33 "HgN/A
4:00 AM39 °FChilly.3 mph57%30.32 "HgN/A
3:00 AM40 °FChilly.2 mph52%30.32 "HgN/A
2:00 AM40 °FChilly.2 mph52%30.32 "HgN/A
11:00 PM
Apr 15
42 °FQuite cool.7 mph48%30.30 "HgN/A
10:00 PM44 °FQuite cool.9 mph46%30.28 "HgN/A
9:00 PM47 °FCool.3 mph40%30.24 "HgN/A
8:00 PM47 °FCool.6 mph38%30.22 "HgN/A
Weather by CustomWeather, © 2014

See weather overview